Regional Weather Roundup
Issued by NWS

Home | Current Version | Previous Version | Text Only | Print | Product List | Glossary On
Versions: 1 2 3 4 5 6 7 8 9 10 11 12 13 14 15 16 17 18 19 20 21 22 23 24 25 26 27
000
ASUS46 KPQR 271010
RWROR

OREGON REGIONAL WEATHER ROUNDUP
NATIONAL WEATHER SERVICE PORTLAND OR
300 AM PDT TUE JUN 27 2017

NOTE: "FAIR" INDICATES FEW OR NO CLOUDS BELOW 12,000 FEET WITH
NO SIGNIFICANT WEATHER AND/OR OBSTRUCTIONS TO VISIBILITY.

ORZ001>013-271100-
NORTHWEST OREGON


CITY           SKY/WX    TMP DP  RH WIND       PRES   REMARKS
ASTORIA        CLOUDY    57  48  72 CALM      30.05S
NEWPORT        CLOUDY    55  54  94 CALM      30.09S
PORTLAND       CLOUDY    57  48  72 NW8       30.06R
VANCOUVER WA   CLOUDY    58  50  75 N7        30.05R
SCAPPOOSE      CLOUDY    56  49  77 N8        30.05R
HILLSBORO      CLOUDY    56  50  80 N5        30.04S
AURORA         CLOUDY    60  51  72 SW3       30.05S
MCMINNVILLE    CLOUDY    57  50  77 W3        30.05R
SALEM          CLOUDY    58  53  84 NW3       30.04R
CORVALLIS      CLOUDY    57  48  72 NW3       30.05S
EUGENE         CLOUDY    57  55  93 S6        30.05S
$$

ORZ021-028-271100-
SOUTHWEST OREGON


CITY           SKY/WX    TMP DP  RH WIND       PRES   REMARKS
NORTH BEND     CLOUDY    57  55  94 CALM      30.07F
BROOKINGS      CLOUDY    57  54  89 NW3       30.04S
ROSEBURG       CLOUDY    59  54  83 N7        30.05S
SEXTON SUMMIT  FOG       49  48  97 NW5       30.04F VSB<1/4
GRANTS PASS    CLOUDY    59  54  82 CALM      30.05S
MEDFORD        CLEAR     63  55  75 NW5       29.99S
$$

ORZ014>016-041-271100-
COLUMBIA GORGE


CITY           SKY/WX    TMP DP  RH WIND       PRES   REMARKS
TROUTDALE      CLOUDY    59  50  72 VRB5      30.05R
HOOD RIVER     PTCLDY    61  48  63 W16G23    29.95R
THE DALLES     PTCLDY    66  51  58 NW8G20    29.90R
$$

ORZ029>031-041-044-049-050-061>064-502-503-505>511-271100-
EASTERN OREGON


CITY           SKY/WX    TMP DP  RH WIND       PRES   REMARKS
MADRAS         CLEAR     54  50  87 NE5       29.99S
REDMOND        PTCLDY    52  44  74 CALM      29.98R
BEND           PTCLDY    55  48  76 W5        30.01R
PRINEVILLE     PTCLDY    52  48  87 S5        29.99S
KLAMATH FALLS  CLEAR     54  52  93 NE5       30.04F
LAKEVIEW       CLEAR     48  41  76 NE5       30.09S
HERMISTON      PTCLDY    68  52  56 SW14G26   29.83R
PENDLETON      PTCLDY    61  52  72 NW5       29.89R
JOHN DAY       MOCLDY    59  52  76 CALM      29.99R
MEACHAM        MOCLDY    50  46  86 CALM      29.97R
LA GRANDE      PTCLDY    57  48  72 W7        29.91R
BAKER CITY     MOCLDY    60  50  69 SE6       29.93R
BURNS          MOCLDY    50  43  77 N3        29.99S
ROME             N/A     56  42  59 SE5       29.98S
ONTARIO        CLOUDY    68  51  54 N13       29.84F
$$




USA.gov is the U.S. government's official web portal to all federal, state and local government web resources and services.